DECAYED

OBJECT C, 56733 (Decayed)

Orbit data source: Space-Track

You're viewing an Uncataloged Satellite

Recently launched and/or uncataloged satellites may have evolving metadata. Metadata may include but not limited to: Owner, Maufacturer, Bus, Motor, and Mission.

OBJECT C, 56733 was a satellite owned by Wuhan daxue (CN) in LEO that was launched on Sun, 21 May 2023 UTC via a CHANG ZHENG 2C launch vehicle from the Jiuquan Satellite Launch Center, China (JSC). Unknown objects in Earth's orbit typically refer to objects detected orbiting the Earth but have not yet been identified or cataloged. These objects could be anything from previously untracked satellites, spent rocket stages, debris from satellite collisions, or even natural meteoroids temporarily captured by Earth's gravity. This object's orbit decayed before it could be identified.

Not visible in the next 10 days
Identifier
56733, 2023-069C
Orbit
Decayed
Country
Flag of CNCN / PRC
Related business
Manufacturer
DFHZ?
Mission
Decayed Amateur Imaging
Bus & Motor
LUOJIA-2, Unknown motor
Mass
~353 kg wet, 353 kg dry
Launch date (UTC)
2023-05-21 (3 years ago)
Launch vehicle
CHANG ZHENG 2C
Launch site
Jiuquan Satellite Launch Center, China (JSC)
Object type
Unknown
Shape & HBR
Box + 3 Pan, 2.0 m
Radar Cross Section
1.847 m², Large (>1 m²)

Expand to show TLE details & history
Last TLE update: 1 year ago

TLE from 1 year ago
0 OBJECT C
1 56733U 23069C   25083.92321813  .18967566  78350-5  38256-3 0  9994
2 56733  40.9809 278.3067 0005726 242.8220 264.6483 16.46850411104306
Epoch: 2025-03-24T22:09Z
TLE epoch observation values (Epoch: 2025-03-24T22:09:26.046Z)
Latitude
20.76187°
Longitude
-82.39866°
Altitude
147.136 km
Speed
7.822 km/s
True Right ascension
04h 50m 22s
True Declination
20° 38' 15"
Sunlit
Object was in daylight at epoch
Visualization orbit readout
Latitude
Unknown
Longitude
Unknown
Altitude
Unknown
Speed
Unknown
Apparent Right ascension
Unknown
Apparent Declination
Unknown
Sunlit
N/A
Visualization observer readout
Local Sidereal Time
00:33:50
Azimuth
Unknown
Elevation
Unknown
Doppler factor
Unknown
Orbital elements
Apogee altitude
153.78 km
Perigee altitude
146.304 km
Semi-major axis
6,528.179 km
Eccentricity
0.00057
Inclination
40.9809°
RAAN
278.3067°
Arg. of periapsis
242.822°
True anomaly
264.58298°
Mean anomaly
264.6483°
Eccentric anomaly
264.61564°
Mean motion
4.11486 °/min
Orbital period
87.49 mins
BSTAR
0.00038256
Loading maneuver chart data...
Computing Atmospheric mass density...
Loading historical data...
Loading historical data...
Loading historical data...
Loading historical data...
Loading historical data...
Loading historical data...
Loading historical data...

Documentation

Showing up to 5 results
|